Wind_Speed
29 29 29 29 29 30 31 30 30 29 29 29 30 30 31 32 33 35 36 36 36 38 39 40 40 41 42 43 44 45 45 45 45 44 44 44 44 45 46 46 46 46 47 48
29 29 29 29 30 30 30 29 29 29 29 29 29 30 30 32 33 35 36 36 36 37 39 39 40 41 42 43 44 45 45 45 45 45 45 46 46 46 46 47 46 47 48 49
30 30 30 30 29 29 29 29 28 28 29 29 30 30 30 32 33 34 35 36 36 36 37 40 40 41 42 42 43 44 45 45 45 46 46 46 47 47 47 48 49 48 49 49
30 30 30 30 29 29 30 29 28 28 29 29 30 31 29 31 32 33 34 35 35 35 36 39 40 40 41 42 43 44 45 45 45 45 45 46 47 47 48 48 49 49 49 50
30 30 30 29 29 30 30 30 30 29 30 30 29 32 30 30 31 32 33 34 35 36 36 38 39 40 41 42 43 44 45 45 45 46 45 45 46 47 48 48 48 48 49 50
30 30 30 30 30 30 30 31 30 30 31 31 29 31 31 31 31 31 32 33 35 36 37 38 39 40 40 41 43 44 45 45 46 47 46 47 47 48 49 49 49 48 49 51
30 30 30 30 30 30 30 30 30 31 31 31 30 31 32 31 30 31 32 33 35 36 37 38 38 39 40 41 42 45 46 47 47 47 48 47 48 48 49 49 49 49 48 49
31 31 31 31 31 31 30 30 30 32 32 31 30 32 31 32 31 31 32 33 34 36 36 37 38 39 40 41 42 44 46 47 47 48 48 48 47 48 49 49 50 50 50 50
31 32 31 31 31 30 30 30 31 32 33 32 31 32 32 32 32 32 32 33 34 35 36 37 38 39 40 41 42 44 45 46 46 46 47 48 48 48 48 49 50 50 51 51
31 32 31 31 31 30 30 31 31 32 34 34 33 32 32 33 32 32 32 32 34 35 36 37 38 39 40 41 43 44 44 44 46 47 48 48 49 49 49 50 51 51 52 52
32 32 32 32 31 31 31 32 32 33 34 35 36 33 33 32 33 33 34 34 35 36 37 37 38 39 41 41 42 43 43 44 45 47 48 49 49 49 49 50 51 52 53 53
32 33 33 32 32 33 33 33 33 33 34 35 37 35 34 34 34 34 35 35 35 36 37 37 37 38 40 41 41 41 42 44 45 46 48 49 49 49 49 50 50 52 53 53
34 34 35 34 34 34 34 33 33 34 34 35 36 35 34 34 34 34 35 35 35 36 36 37 38 38 39 40 41 41 42 42 43 45 47 48 49 49 49 50 51 52 53 53
35 35 35 36 35 35 35 34 34 35 35 35 35 34 33 34 34 34 34 34 35 36 36 37 37 38 38 39 40 40 41 42 42 43 45 47 48 48 49 50 51 51 51 52
36 36 36 36 36 36 36 35 35 35 35 36 35 34 33 34 34 33 34 35 35 36 36 36 37 38 38 39 39 40 41 40 41 42 44 46 48 49 49 48 49 50 50 51
36 36 37 37 36 36 36 35 35 35 35 35 35 34 34 34 34 34 34 35 35 36 36 36 37 37 37 38 39 40 41 40 41 42 43 44 46 47 47 47 49 49 49 49
36 37 37 37 36 36 35 34 34 35 34 35 35 34 33 34 34 34 34 35 35 35 35 35 35 36 36 37 39 40 40 41 41 41 42 42 42 44 45 46 47 47 48 47
35 36 37 37 36 36 35 34 34 34 34 34 35 35 35 35 34 34 34 35 34 35 35 34 34 35 36 37 38 39 40 41 41 40 40 40 41 43 43 44 45 46 47 47
35 36 36 36 36 36 34 34 34 35 34 35 35 35 35 35 34 34 35 34 34 34 34 34 34 33 34 35 37 38 38 39 38 38 38 39 40 41 43 43 44 44 46 47
35 36 36 36 37 37 35 34 34 35 35 35 35 35 34 34 34 33 33 33 33 33 32 32 32 32 33 34 35 36 36 36 36 36 37 37 39 40 41 41 41 42 44 46
34 35 35 36 37 36 35 35 34 34 34 34 34 34 34 34 34 33 32 32 32 32 31 32 32 32 32 33 33 33 33 34 35 35 34 35 35 37 39 40 40 41 43 44
33 33 33 34 35 35 35 34 34 34 33 34 34 34 34 33 32 32 31 31 31 31 31 31 31 31 31 31 31 32 32 33 33 34 34 34 35 36 37 38 39 41 42 42
33 33 33 34 34 34 34 33 33 33 33 34 33 33 32 32 31 31 31 31 31 31 30 30 29 30 30 30 30 31 31 31 32 32 32 33 33 35 37 38 39 39 40 42
32 32 32 32 32 32 32 32 32 32 32 32 31 31 31 31 31 31 31 30 30 30 30 29 28 29 29 29 29 30 30 31 31 31 32 33 33 34 36 38 39 39 40 41
30 31 31 31 31 31 31 31 31 31 30 30 30 31 31 31 30 30 30 30 29 28 28 28 29 29 28 28 28 29 29 29 30 30 31 31 32 33 35 36 37 38 38 39
29 30 30 30 30 31 31 30 30 30 30 30 30 30 30 30 30 29 29 28 28 28 28 28 28 29 28 27 27 27 27 27 27 29 29 29 30 31 33 34 35 37 37 38
Wind_Direction
307 305 305 305 303 301 297 292 288 285 283 280 276 273 271 267 264 261 260 261 260 259 258 258 257 255 255 254 254 254 254 253 253 252 252 251 250 249 248 246 244 243 242 241
306 306 306 304 302 302 299 295 290 287 285 282 278 275 272 269 267 265 262 261 263 262 260 257 257 256 255 254 254 254 253 252 252 251 251 251 250 249 248 246 244 244 242 242
307 307 308 306 304 303 301 299 295 291 287 283 281 277 275 271 269 268 265 263 264 265 261 258 258 258 256 255 254 254 253 252 252 250 250 250 249 248 248 246 244 244 243 242
306 307 308 307 304 304 303 302 298 294 291 287 283 280 277 275 272 269 267 265 265 266 263 261 260 259 257 255 254 253 253 252 251 250 251 250 249 248 248 246 245 244 243 242
307 307 308 307 305 304 303 303 300 296 293 289 285 284 282 280 274 271 269 266 266 266 265 263 262 261 258 256 255 254 253 252 251 249 249 249 249 248 248 247 245 243 242 242
306 306 307 307 306 304 304 303 301 296 293 292 290 287 286 284 280 273 269 268 267 267 266 266 265 262 260 258 257 255 254 252 250 249 250 249 250 249 248 246 245 243 242 242
305 305 306 306 305 305 305 304 303 301 298 295 293 290 291 288 285 277 272 270 269 269 268 267 266 263 261 260 259 256 253 251 250 250 251 250 250 249 248 246 245 244 243 243
305 305 306 306 306 306 305 303 302 302 301 298 295 295 295 292 288 283 277 273 271 270 270 268 266 264 263 261 260 258 254 251 250 251 251 250 251 250 248 247 246 245 246 245
306 305 306 305 306 306 305 303 302 301 300 298 296 297 293 293 291 287 283 278 274 273 271 269 268 266 265 263 262 259 255 253 253 253 252 251 250 251 249 247 247 246 246 245
305 304 305 305 305 304 304 304 302 301 300 299 297 299 298 294 291 289 286 281 276 275 272 271 270 269 267 264 262 260 256 256 256 254 253 251 251 251 250 247 247 247 247 245
305 304 304 304 303 303 302 302 302 301 299 298 297 298 296 296 294 291 288 284 280 278 275 273 272 270 268 266 264 262 259 258 257 254 253 252 252 252 251 249 248 247 248 247
304 304 304 304 303 302 301 301 301 300 300 298 296 296 295 295 296 294 290 286 283 280 279 276 274 272 271 267 264 263 261 260 258 254 253 253 253 253 252 249 249 247 248 247
304 304 304 303 302 302 301 300 299 299 299 298 297 297 295 295 296 295 293 289 286 284 282 279 276 274 272 269 266 265 263 262 260 257 256 255 254 253 252 250 249 248 248 248
301 302 302 303 302 301 301 300 299 298 298 298 297 297 296 294 295 295 293 290 288 285 283 281 279 276 273 270 268 267 264 264 262 260 258 256 255 253 253 252 251 250 249 249
300 300 300 301 300 299 299 298 297 296 295 296 297 297 298 297 295 294 293 290 289 288 285 281 279 277 274 272 271 269 266 266 263 262 260 258 255 253 253 252 252 252 251 251
299 299 299 300 299 298 298 297 296 295 295 295 296 297 297 298 296 294 293 292 290 289 287 284 281 277 275 273 272 271 269 267 265 265 263 260 257 253 252 251 250 250 249 250
298 299 299 300 300 298 297 299 298 296 296 295 295 297 296 296 297 297 295 293 292 291 288 285 283 279 276 274 272 271 269 270 269 267 263 259 256 253 253 252 251 250 249 250
299 299 300 300 300 298 300 298 296 297 297 296 295 295 295 296 298 298 297 296 293 292 290 288 286 281 277 275 274 273 271 270 270 268 264 260 256 254 252 252 252 251 249 249
298 299 299 300 300 298 299 298 297 296 296 296 296 295 294 296 297 298 298 298 296 293 291 289 287 284 281 278 275 275 273 270 269 267 264 260 257 255 253 253 252 251 250 250
298 298 298 300 299 299 300 298 297 296 296 296 296 296 295 295 296 296 297 298 298 296 293 290 288 286 284 282 280 277 274 270 268 267 265 262 258 255 253 252 251 251 250 250
299 298 299 299 298 298 299 298 297 296 297 296 296 297 297 298 297 297 298 299 299 298 295 292 290 289 287 284 282 280 276 272 270 270 266 263 260 256 254 254 253 252 250 250
301 301 301 300 299 299 299 297 297 297 296 297 297 297 298 299 298 297 298 299 299 298 297 295 293 291 289 286 283 281 278 274 272 269 266 263 261 258 255 255 254 252 251 249
300 301 300 300 300 299 298 298 298 297 297 297 298 298 298 299 299 299 299 299 298 298 297 296 295 294 292 288 285 283 280 276 273 270 267 264 263 260 257 254 254 253 252 250
298 298 298 300 302 300 299 299 299 298 298 297 298 298 299 299 300 301 301 300 298 297 297 296 296 296 294 290 288 285 281 277 274 272 268 267 265 261 258 255 254 254 253 250
297 297 298 299 301 300 299 300 299 299 298 298 299 300 301 301 301 301 301 301 300 299 298 297 297 296 295 292 289 286 283 279 275 273 269 268 266 264 260 257 256 254 252 252
297 297 298 299 300 300 300 299 298 298 298 298 299 300 301 301 301 300 301 301 300 299 299 298 298 299 295 291 289 286 283 280 279 276 271 270 268 264 261 259 257 255 254 252
Height
5730 5727 5721 5717 5712 5708 5704 5700 5698 5696 5694 5693 5692 5692 5692 5691 5692 5692 5693 5694 5694 5695 5695 5696 5697 5698 5699 5700 5702 5703 5705 5707 5708 5711 5713 5715 5717 5719 5721 5724 5728 5731 5734 5739
5724 5719 5714 5709 5705 5700 5696 5692 5690 5688 5686 5684 5683 5684 5683 5682 5682 5682 5682 5682 5682 5683 5683 5684 5684 5685 5686 5687 5688 5690 5691 5693 5696 5698 5700 5702 5704 5706 5709 5712 5715 5719 5722 5727
5715 5712 5706 5702 5698 5693 5689 5685 5682 5680 5678 5676 5675 5675 5675 5673 5672 5672 5671 5671 5671 5671 5671 5672 5672 5673 5673 5674 5675 5677 5678 5680 5682 5685 5687 5689 5691 5694 5696 5699 5703 5706 5710 5714
5708 5704 5699 5695 5691 5687 5683 5679 5675 5672 5670 5668 5666 5665 5667 5665 5663 5662 5661 5660 5660 5660 5660 5660 5660 5661 5661 5662 5663 5664 5665 5667 5669 5671 5673 5676 5679 5682 5684 5687 5690 5694 5697 5702
5701 5697 5692 5688 5684 5680 5676 5672 5668 5665 5662 5660 5658 5656 5658 5656 5654 5652 5652 5651 5651 5650 5649 5649 5649 5649 5649 5650 5651 5652 5653 5655 5656 5658 5660 5664 5667 5669 5672 5675 5677 5681 5685 5689
5694 5690 5685 5681 5677 5673 5669 5665 5662 5658 5655 5653 5651 5647 5647 5645 5644 5643 5642 5641 5640 5639 5639 5638 5638 5637 5638 5638 5639 5639 5640 5642 5644 5646 5648 5651 5654 5657 5659 5662 5665 5668 5672 5676
5687 5683 5678 5674 5670 5666 5663 5659 5654 5650 5647 5646 5643 5639 5639 5636 5634 5633 5633 5631 5630 5629 5629 5628 5627 5626 5627 5627 5627 5627 5628 5630 5632 5634 5636 5639 5641 5644 5646 5649 5653 5656 5660 5664
5679 5676 5671 5667 5663 5659 5655 5652 5648 5643 5639 5638 5635 5632 5631 5628 5625 5623 5622 5621 5620 5619 5618 5617 5616 5615 5615 5615 5615 5615 5616 5618 5620 5622 5624 5626 5628 5630 5633 5637 5640 5644 5648 5652
5670 5667 5664 5659 5655 5652 5647 5644 5640 5636 5631 5628 5626 5625 5623 5619 5616 5614 5612 5611 5609 5608 5607 5606 5605 5604 5603 5603 5603 5603 5604 5606 5608 5609 5611 5613 5616 5618 5620 5624 5627 5632 5636 5639
5662 5659 5656 5652 5648 5644 5641 5637 5632 5627 5623 5620 5618 5617 5614 5610 5607 5605 5603 5600 5599 5598 5596 5595 5594 5593 5592 5591 5591 5591 5592 5593 5594 5596 5598 5600 5603 5605 5608 5611 5615 5619 5622 5625
5654 5652 5649 5645 5641 5637 5634 5630 5624 5619 5616 5612 5609 5612 5606 5603 5599 5596 5594 5591 5589 5587 5586 5585 5583 5582 5581 5579 5579 5579 5580 5581 5582 5583 5585 5587 5589 5591 5594 5597 5601 5604 5608 5611
5646 5643 5640 5637 5633 5628 5625 5621 5617 5613 5609 5604 5600 5604 5598 5594 5590 5587 5584 5581 5579 5577 5575 5574 5572 5571 5569 5568 5568 5567 5568 5569 5569 5571 5572 5573 5575 5577 5580 5583 5586 5590 5594 5597
5638 5634 5631 5628 5626 5622 5617 5613 5609 5604 5600 5596 5592 5595 5589 5585 5581 5577 5574 5572 5569 5567 5564 5563 5561 5559 5558 5557 5556 5556 5556 5556 5557 5557 5559 5560 5562 5563 5566 5569 5572 5576 5579 5583
5629 5626 5623 5620 5615 5611 5608 5605 5600 5596 5591 5588 5585 5583 5581 5576 5572 5569 5565 5562 5559 5557 5554 5552 5550 5549 5547 5546 5545 5544 5544 5544 5544 5544 5545 5546 5548 5550 5553 5555 5558 5561 5565 5569
5620 5618 5614 5610 5606 5603 5599 5596 5592 5587 5583 5580 5577 5574 5572 5567 5563 5560 5556 5553 5550 5547 5544 5542 5540 5538 5536 5535 5533 5532 5532 5531 5531 5531 5531 5533 5534 5537 5539 5542 5545 5548 5550 5554
5611 5608 5605 5602 5597 5593 5590 5587 5583 5578 5575 5571 5568 5566 5563 5558 5554 5551 5547 5544 5540 5537 5534 5531 5529 5527 5525 5523 5522 5521 5520 5519 5518 5518 5518 5519 5520 5523 5526 5528 5531 5534 5537 5540
5602 5598 5594 5592 5588 5583 5581 5578 5574 5570 5566 5563 5558 5557 5553 5549 5545 5541 5538 5534 5531 5527 5524 5521 5518 5516 5514 5513 5511 5509 5508 5507 5506 5505 5505 5506 5507 5510 5512 5515 5518 5521 5524 5527
5593 5588 5584 5581 5578 5574 5575 5569 5564 5560 5558 5553 5550 5547 5543 5540 5536 5532 5528 5524 5521 5517 5514 5511 5508 5506 5504 5502 5500 5498 5497 5495 5495 5494 5493 5494 5495 5497 5500 5503 5505 5508 5511 5514
5583 5579 5575 5571 5567 5564 5564 5560 5555 5551 5549 5545 5541 5537 5534 5530 5527 5524 5519 5515 5511 5508 5504 5501 5498 5496 5494 5492 5489 5487 5486 5485 5484 5484 5483 5484 5485 5486 5489 5491 5493 5496 5499 5501
5574 5570 5566 5561 5556 5554 5555 5550 5545 5542 5539 5537 5532 5528 5524 5521 5518 5516 5510 5506 5502 5498 5495 5492 5489 5486 5484 5482 5479 5477 5476 5475 5474 5474 5474 5474 5474 5476 5478 5480 5482 5484 5486 5489
5564 5560 5557 5552 5547 5545 5544 5540 5536 5533 5531 5526 5522 5519 5515 5511 5508 5505 5501 5497 5493 5489 5486 5483 5480 5477 5474 5472 5469 5468 5466 5465 5465 5464 5464 5464 5464 5465 5467 5469 5470 5472 5475 5477
5555 5551 5547 5543 5539 5539 5534 5530 5527 5524 5520 5516 5512 5509 5506 5502 5498 5495 5491 5488 5484 5481 5477 5474 5471 5468 5465 5462 5460 5459 5457 5456 5455 5455 5454 5455 5455 5455 5456 5458 5459 5461 5463 5465
5546 5543 5538 5535 5534 5528 5524 5520 5517 5514 5511 5507 5504 5500 5497 5494 5490 5486 5483 5479 5476 5472 5469 5465 5462 5459 5456 5453 5451 5450 5448 5446 5446 5445 5445 5445 5445 5445 5446 5447 5448 5450 5452 5454
5537 5533 5530 5526 5524 5520 5515 5511 5508 5505 5501 5498 5495 5492 5488 5485 5481 5478 5474 5470 5467 5464 5460 5457 5454 5451 5448 5445 5442 5440 5438 5437 5436 5435 5435 5434 5435 5435 5436 5437 5437 5439 5441 5442
5528 5524 5521 5517 5515 5511 5507 5503 5500 5497 5493 5490 5486 5483 5480 5476 5473 5469 5466 5462 5458 5455 5452 5449 5446 5443 5439 5436 5433 5431 5429 5428 5427 5425 5425 5424 5424 5424 5425 5426 5427 5428 5429 5431
5520 5516 5512 5509 5506 5503 5500 5495 5492 5488 5485 5482 5478 5475 5471 5468 5464 5461 5457 5454 5450 5447 5444 5440 5437 5434 5431 5428 5425 5422 5420 5419 5417 5416 5415 5415 5414 5414 5414 5415 5416 5416 5418 5419